Time,TemperatureF,DewpointF,PressureIn,WindDirection,WindDirectionDegrees,WindSpeedMPH,WindSpeedGustMPH,Humidity,HourlyPrecipIn,Conditions,Clouds,dailyrainin,SoftwareType,DateUTC
2013-05-05 00:01:00,54.9,51.1,29.62,WSW,240,1.1,1.1,87,0.00,CLR,,0.00,WeatherDisplay:10.37,2013-05-05 07:01:00,
2013-05-05 00:06:00,54.8,51.0,29.62,WSW,246,2.3,2.3,87,0.00,CLR,,0.00,WeatherDisplay:10.37,2013-05-05 07:06:00,
2013-05-05 00:11:00,54.8,51.0,29.62,WSW,254,1.1,1.1,87,0.00,CLR,,0.00,WeatherDisplay:10.37,2013-05-05 07:11:00,
2013-05-05 00:16:00,54.8,51.0,29.62,WSW,239,1.1,1.1,87,0.00,CLR,,0.00,WeatherDisplay:10.37,2013-05-05 07:16:00,
2013-05-05 00:21:00,55.0,51.2,29.62,SW,236,1.1,0.0,87,0.00,CLR,,0.00,WeatherDisplay:10.37,2013-05-05 07:21:00,
2013-05-05 00:26:00,55.1,51.0,29.62,South,179,1.1,1.1,86,0.00,CLR,,0.00,WeatherDisplay:10.37,2013-05-05 07:26:00,
2013-05-05 00:31:00,55.3,51.2,29.62,SW,217,1.1,1.1,86,0.00,CLR,,0.00,WeatherDisplay:10.37,2013-05-05 07:31:00,
2013-05-05 00:36:00,55.5,51.1,29.62,SW,217,1.1,1.1,85,0.00,CLR,,0.00,WeatherDisplay:10.37,2013-05-05 07:36:00,
2013-05-05 00:41:00,55.7,50.9,29.62,NW,319,1.1,1.1,84,0.00,CLR,,0.00,WeatherDisplay:10.37,2013-05-05 07:41:00,
2013-05-05 00:46:00,55.9,50.5,29.62,WSW,253,1.1,1.1,82,0.00,CLR,,0.00,WeatherDisplay:10.37,2013-05-05 07:46:00,
2013-05-05 00:51:00,56.1,50.3,29.62,NW,304,1.1,1.1,81,0.00,CLR,,0.00,WeatherDisplay:10.37,2013-05-05 07:51:00,
2013-05-05 00:56:00,56.1,50.3,29.62,WSW,255,1.1,1.1,81,0.00,CLR,,0.00,WeatherDisplay:10.37,2013-05-05 07:56:00,
2013-05-05 01:01:00,56.2,50.1,29.62,SW,233,3.5,3.5,80,0.00,CLR,,0.00,WeatherDisplay:10.37,2013-05-05 08:01:00,
2013-05-05 01:06:00,56.3,50.2,29.62,NW,311,3.5,3.5,80,0.00,CLR,,0.00,WeatherDisplay:10.37,2013-05-05 08:06:00,
2013-05-05 01:11:00,56.5,50.4,29.62,WNW,302,5.8,5.8,80,0.00,CLR,,0.00,WeatherDisplay:10.37,2013-05-05 08:11:00,
2013-05-05 01:16:00,56.6,50.8,29.62,NW,319,4.6,4.6,81,0.00,CLR,,0.00,WeatherDisplay:10.37,2013-05-05 08:16:00,
2013-05-05 01:21:00,56.6,50.8,29.62,NW,311,3.5,3.5,81,0.00,CLR,,0.00,WeatherDisplay:10.37,2013-05-05 08:21:00,
2013-05-05 01:26:00,56.5,50.1,29.63,WNW,294,2.3,2.3,79,0.00,CLR,,0.00,WeatherDisplay:10.37,2013-05-05 08:26:00,
2013-05-05 01:31:00,56.5,50.1,29.63,NW,326,3.5,3.5,79,0.00,CLR,,0.00,WeatherDisplay:10.37,2013-05-05 08:31:00,
2013-05-05 01:36:00,56.5,50.1,29.63,WNW,303,3.5,3.5,79,0.00,CLR,,0.00,WeatherDisplay:10.37,2013-05-05 08:36:00,
2013-05-05 01:41:00,56.4,50.0,29.63,NW,307,3.5,3.5,79,0.00,CLR,,0.00,WeatherDisplay:10.37,2013-05-05 08:41:00,
2013-05-05 01:46:00,56.2,49.8,29.63,NW,319,3.5,3.5,79,0.00,CLR,,0.00,WeatherDisplay:10.37,2013-05-05 08:46:00,
2013-05-05 01:51:00,56.2,49.8,29.63,NNW,344,3.5,3.5,79,0.00,CLR,,0.00,WeatherDisplay:10.37,2013-05-05 08:51:00,
2013-05-05 01:56:00,56.1,49.7,29.63,North,349,4.6,4.6,79,0.00,CLR,,0.00,WeatherDisplay:10.37,2013-05-05 08:56:00,
2013-05-05 02:01:00,55.8,49.7,29.63,NW,326,3.5,3.5,80,0.00,CLR,,0.00,WeatherDisplay:10.37,2013-05-05 09:01:00,
2013-05-05 02:06:00,55.6,49.5,29.63,NW,309,3.5,3.5,80,0.00,CLR,,0.00,WeatherDisplay:10.37,2013-05-05 09:06:00,
2013-05-05 02:11:00,55.5,49.4,29.63,WNW,299,3.5,3.5,80,0.00,CLR,,0.00,WeatherDisplay:10.37,2013-05-05 09:11:00,
2013-05-05 02:16:00,55.4,49.3,29.63,NW,304,3.5,3.5,80,0.00,CLR,,0.00,WeatherDisplay:10.37,2013-05-05 09:16:00,
2013-05-05 02:21:00,55.3,49.2,29.63,West,263,5.8,5.8,80,0.00,CLR,,0.00,WeatherDisplay:10.37,2013-05-05 09:21:00,
2013-05-05 02:26:00,55.2,49.1,29.63,North,6,3.5,3.5,80,0.00,CLR,,0.00,WeatherDisplay:10.37,2013-05-05 09:26:00,
2013-05-05 02:31:00,55.1,49.0,29.63,WNW,301,1.1,1.1,80,0.00,CLR,,0.00,WeatherDisplay:10.37,2013-05-05 09:31:00,
2013-05-05 02:36:00,55.1,49.4,29.63,NW,307,1.1,1.1,81,0.00,CLR,,0.00,WeatherDisplay:10.37,2013-05-05 09:36:00,
2013-05-05 02:41:00,55.0,49.3,29.64,WNW,297,3.5,3.5,81,0.00,CLR,,0.00,WeatherDisplay:10.37,2013-05-05 09:41:00,
2013-05-05 02:46:00,55.0,49.3,29.63,WNW,299,3.5,3.5,81,0.00,CLR,,0.00,WeatherDisplay:10.37,2013-05-05 09:46:00,
2013-05-05 02:51:00,55.0,49.3,29.63,NW,305,3.5,3.5,81,0.00,CLR,,0.00,WeatherDisplay:10.37,2013-05-05 09:51:00,
2013-05-05 02:56:00,55.0,48.9,29.64,NW,309,3.0,3.0,80,0.00,CLR,,0.00,WeatherDisplay:10.37,2013-05-05 09:56:00,
2013-05-05 03:01:00,55.0,48.9,29.63,WNW,299,3.0,3.0,80,0.00,CLR,,0.00,WeatherDisplay:10.37,2013-05-05 10:01:00,
2013-05-05 03:06:00,55.0,48.9,29.63,NW,319,2.3,2.3,80,0.00,CLR,,0.00,WeatherDisplay:10.37,2013-05-05 10:06:00,
2013-05-05 03:11:00,55.1,49.0,29.63,NW,307,3.5,3.5,80,0.00,CLR,,0.00,WeatherDisplay:10.37,2013-05-05 10:11:00,
2013-05-05 03:16:00,55.0,48.9,29.64,NW,315,1.1,1.1,80,0.00,CLR,,0.00,WeatherDisplay:10.37,2013-05-05 10:16:00,
2013-05-05 03:21:00,55.0,48.9,29.64,NW,315,0.0,0.0,80,0.00,CLR,,0.00,WeatherDisplay:10.37,2013-05-05 10:21:00,
2013-05-05 03:26:00,54.9,48.8,29.64,NW,314,0.0,0.0,80,0.00,CLR,,0.00,WeatherDisplay:10.37,2013-05-05 10:26:00,
2013-05-05 03:31:00,54.8,48.7,29.64,NW,315,0.0,0.0,80,0.00,CLR,,0.00,WeatherDisplay:10.37,2013-05-05 10:31:00,
2013-05-05 03:36:00,54.8,48.7,29.65,NNW,348,1.1,0.0,80,0.00,CLR,,0.00,WeatherDisplay:10.37,2013-05-05 10:36:00,
2013-05-05 03:41:00,55.0,48.9,29.65,North,349,1.1,1.1,80,0.00,CLR,,0.00,WeatherDisplay:10.37,2013-05-05 10:41:00,
2013-05-05 03:46:00,55.0,48.9,29.64,North,349,0.0,0.0,80,0.00,CLR,,0.00,WeatherDisplay:10.37,2013-05-05 10:46:00,
2013-05-05 03:51:00,54.8,49.1,29.65,North,349,1.0,0.0,81,0.00,CLR,,0.00,WeatherDisplay:10.37,2013-05-05 10:51:00,
2013-05-05 03:56:00,54.7,49.0,29.65,ENE,67,3.5,3.5,81,0.00,CLR,,0.00,WeatherDisplay:10.37,2013-05-05 10:56:00,
2013-05-05 04:01:00,54.7,49.3,29.64,ENE,65,1.1,1.1,82,0.00,CLR,,0.00,WeatherDisplay:10.37,2013-05-05 11:01:00,
2013-05-05 04:06:00,54.8,49.4,29.65,ENE,64,2.3,2.3,82,0.00,CLR,,0.00,WeatherDisplay:10.37,2013-05-05 11:06:00,
2013-05-05 04:11:00,54.9,49.2,29.65,ENE,68,2.3,2.3,81,0.00,CLR,,0.00,WeatherDisplay:10.37,2013-05-05 11:11:00,
2013-05-05 04:16:00,55.0,49.3,29.65,ENE,71,1.1,1.1,81,0.00,CLR,,0.00,WeatherDisplay:10.37,2013-05-05 11:16:00,
2013-05-05 04:21:00,55.1,49.4,29.65,ESE,121,1.1,1.1,81,0.00,CLR,,0.00,WeatherDisplay:10.37,2013-05-05 11:21:00,
2013-05-05 04:26:00,55.2,49.1,29.65,East,87,1.1,1.1,80,0.00,CLR,,0.00,WeatherDisplay:10.37,2013-05-05 11:26:00,
2013-05-05 04:31:00,55.3,49.2,29.65,ENE,67,0.0,0.0,80,0.00,CLR,,0.00,WeatherDisplay:10.37,2013-05-05 11:31:00,
2013-05-05 04:36:00,55.4,49.0,29.65,ENE,74,2.3,2.3,79,0.00,CLR,,0.00,WeatherDisplay:10.37,2013-05-05 11:36:00,
2013-05-05 04:41:00,55.5,49.1,29.65,ENE,74,0.0,0.0,79,0.00,CLR,,0.00,WeatherDisplay:10.37,2013-05-05 11:41:00,
2013-05-05 04:46:00,55.6,49.2,29.65,SSW,212,1.1,1.1,79,0.00,CLR,,0.00,WeatherDisplay:10.37,2013-05-05 11:46:00,
2013-05-05 04:51:00,55.6,49.2,29.66,South,184,1.1,1.1,79,0.00,CLR,,0.00,WeatherDisplay:10.37,2013-05-05 11:51:00,
2013-05-05 04:56:00,55.7,49.3,29.66,South,176,1.1,1.1,79,0.00,CLR,,0.00,WeatherDisplay:10.37,2013-05-05 11:56:00,
2013-05-05 05:01:00,55.7,48.9,29.66,SSE,165,2.3,2.3,78,0.00,CLR,,0.00,WeatherDisplay:10.37,2013-05-05 12:01:00,
2013-05-05 05:06:00,55.9,48.8,29.66,SSE,165,3.5,3.5,77,0.00,CLR,,0.00,WeatherDisplay:10.37,2013-05-05 12:06:00,
2013-05-05 05:11:00,56.1,49.0,29.66,SW,233,2.3,2.3,77,0.00,CLR,,0.00,WeatherDisplay:10.37,2013-05-05 12:11:00,
2013-05-05 05:16:00,56.3,48.8,29.65,WSW,250,3.5,3.5,76,0.00,CLR,,0.00,WeatherDisplay:10.37,2013-05-05 12:16:00,
2013-05-05 05:21:00,56.5,48.7,29.66,SSE,166,3.5,3.5,75,0.00,CLR,,0.00,WeatherDisplay:10.37,2013-05-05 12:21:00,
2013-05-05 05:26:00,56.5,48.7,29.66,WSW,240,5.8,5.8,75,0.00,CLR,,0.00,WeatherDisplay:10.37,2013-05-05 12:26:00,
2013-05-05 05:31:00,56.5,48.7,29.66,WSW,245,4.6,4.6,75,0.00,CLR,,0.00,WeatherDisplay:10.37,2013-05-05 12:31:00,
2013-05-05 05:36:00,56.5,48.7,29.66,SSW,207,2.3,2.3,75,0.00,CLR,,0.00,WeatherDisplay:10.37,2013-05-05 12:36:00,
2013-05-05 05:41:00,56.4,48.6,29.66,SSE,167,5.8,5.8,75,0.00,CLR,,0.00,WeatherDisplay:10.37,2013-05-05 12:41:00,
2013-05-05 05:46:00,56.4,48.6,29.66,WSW,240,3.5,3.5,75,0.00,CLR,,0.00,WeatherDisplay:10.37,2013-05-05 12:46:00,
2013-05-05 05:51:00,56.4,48.6,29.65,SW,233,3.5,3.5,75,0.00,CLR,,0.00,WeatherDisplay:10.37,2013-05-05 12:51:00,
2013-05-05 05:56:00,56.4,48.9,29.66,SSW,208,5.0,5.0,76,0.00,CLR,,0.00,WeatherDisplay:10.37,2013-05-05 12:56:00,
2013-05-05 06:01:00,56.2,48.7,29.66,SSW,194,0.0,0.0,76,0.00,CLR,,0.00,WeatherDisplay:10.37,2013-05-05 13:01:00,
2013-05-05 06:06:00,55.9,48.4,29.66,SE,146,1.1,1.1,76,0.00,CLR,,0.00,WeatherDisplay:10.37,2013-05-05 13:06:00,
2013-05-05 06:11:00,55.8,48.3,29.66,SE,139,3.5,3.5,76,0.00,CLR,,0.00,WeatherDisplay:10.37,2013-05-05 13:11:00,
2013-05-05 06:16:00,55.5,48.4,29.66,ESE,112,1.1,1.1,77,0.00,CLR,,0.00,WeatherDisplay:10.37,2013-05-05 13:16:00,
2013-05-05 06:21:00,55.6,48.5,29.66,SSW,203,3.5,3.5,77,0.00,CLR,,0.00,WeatherDisplay:10.37,2013-05-05 13:21:00,
2013-05-05 06:26:00,55.7,48.2,29.66,WSW,246,3.5,3.5,76,0.00,CLR,,0.00,WeatherDisplay:10.37,2013-05-05 13:26:00,
2013-05-05 06:31:00,56.0,48.5,29.66,SSW,208,3.5,3.5,76,0.00,CLR,,0.00,WeatherDisplay:10.37,2013-05-05 13:31:00,
2013-05-05 06:36:00,56.0,48.5,29.66,West,268,3.5,3.5,76,0.00,CLR,,0.00,WeatherDisplay:10.37,2013-05-05 13:36:00,
2013-05-05 06:41:00,56.1,48.6,29.67,South,169,3.5,3.5,76,0.00,CLR,,0.00,WeatherDisplay:10.37,2013-05-05 13:41:00,
2013-05-05 06:46:00,56.2,48.4,29.67,SSW,207,3.5,3.5,75,0.00,CLR,,0.00,WeatherDisplay:10.37,2013-05-05 13:46:00,
2013-05-05 06:51:00,56.3,48.5,29.67,SSW,197,3.5,3.5,75,0.00,CLR,,0.00,WeatherDisplay:10.37,2013-05-05 13:51:00,
2013-05-05 06:56:00,56.6,48.8,29.67,WSW,248,2.3,2.3,75,0.00,CLR,,0.00,WeatherDisplay:10.37,2013-05-05 13:56:00,
2013-05-05 07:01:00,56.7,48.9,29.67,WSW,246,2.3,2.3,75,0.00,CLR,,0.00,WeatherDisplay:10.37,2013-05-05 14:01:00,
2013-05-05 07:06:00,56.8,48.6,29.68,South,169,2.3,2.3,74,0.00,CLR,,0.00,WeatherDisplay:10.37,2013-05-05 14:06:00,
2013-05-05 07:11:00,57.0,48.4,29.68,SSW,200,4.0,4.0,73,0.00,CLR,,0.00,WeatherDisplay:10.37,2013-05-05 14:11:00,
2013-05-05 07:16:00,57.2,48.6,29.68,WSW,252,11.5,11.5,73,0.00,CLR,,0.00,WeatherDisplay:10.37,2013-05-05 14:16:00,
2013-05-05 07:21:00,57.4,48.8,29.68,SSW,193,5.8,5.8,73,0.00,CLR,,0.00,WeatherDisplay:10.37,2013-05-05 14:21:00,
2013-05-05 07:26:00,57.6,48.6,29.69,SW,232,4.6,4.6,72,0.00,CLR,,0.00,WeatherDisplay:10.37,2013-05-05 14:26:00,
2013-05-05 07:31:00,57.7,48.7,29.68,WSW,237,6.9,6.9,72,0.00,CLR,,0.00,WeatherDisplay:10.37,2013-05-05 14:31:00,
2013-05-05 07:36:00,57.9,48.9,29.68,SSW,212,3.5,3.5,72,0.00,CLR,,0.00,WeatherDisplay:10.37,2013-05-05 14:36:00,
2013-05-05 07:41:00,58.0,49.0,29.68,WSW,249,2.0,2.0,72,0.00,CLR,,0.00,WeatherDisplay:10.37,2013-05-05 14:41:00,
2013-05-05 07:46:00,58.1,49.1,29.68,WSW,240,3.5,3.5,72,0.00,CLR,,0.00,WeatherDisplay:10.37,2013-05-05 14:46:00,
2013-05-05 07:51:00,58.2,49.2,29.68,South,187,2.3,2.3,72,0.00,CLR,,0.00,WeatherDisplay:10.37,2013-05-05 14:51:00,
2013-05-05 07:56:00,58.3,48.9,29.68,SSW,204,3.5,3.5,71,0.00,CLR,,0.00,WeatherDisplay:10.37,2013-05-05 14:56:00,
2013-05-05 08:01:00,58.7,49.3,29.69,WSW,257,2.3,2.3,71,0.00,CLR,,0.00,WeatherDisplay:10.37,2013-05-05 15:01:00,
2013-05-05 08:06:00,59.0,49.2,29.68,SSE,152,3.5,3.5,70,0.00,CLR,,0.00,WeatherDisplay:10.37,2013-05-05 15:06:00,
2013-05-05 08:11:00,59.5,49.7,29.69,SSW,205,3.5,3.5,70,0.00,CLR,,0.00,WeatherDisplay:10.37,2013-05-05 15:11:00,
2013-05-05 08:16:00,59.8,49.2,29.69,SW,236,5.0,5.0,68,0.00,CLR,,0.00,WeatherDisplay:10.37,2013-05-05 15:16:00,
2013-05-05 08:21:00,60.0,49.4,29.69,South,176,5.0,5.0,68,0.00,CLR,,0.00,WeatherDisplay:10.37,2013-05-05 15:21:00,
2013-05-05 08:26:00,60.5,49.5,29.69,West,259,6.0,6.0,67,0.00,CLR,,0.00,WeatherDisplay:10.37,2013-05-05 15:26:00,
2013-05-05 08:31:00,60.7,49.3,29.69,South,184,16.1,16.1,66,0.00,CLR,,0.00,WeatherDisplay:10.37,2013-05-05 15:31:00,
2013-05-05 08:36:00,60.7,49.7,29.69,WNW,290,8.1,8.1,67,0.00,CLR,,0.00,WeatherDisplay:10.37,2013-05-05 15:36:00,
2013-05-05 08:41:00,60.8,49.8,29.69,SW,229,7.0,7.0,67,0.00,CLR,,0.00,WeatherDisplay:10.37,2013-05-05 15:41:00,
2013-05-05 08:46:00,60.8,49.8,29.70,West,262,5.8,5.8,67,0.00,CLR,,0.00,WeatherDisplay:10.37,2013-05-05 15:46:00,
2013-05-05 08:51:00,60.6,49.6,29.70,SW,221,9.2,9.2,67,0.00,CLR,,0.00,WeatherDisplay:10.37,2013-05-05 15:51:00,
2013-05-05 08:56:00,60.3,49.3,29.70,WSW,257,10.4,10.4,67,0.00,CLR,,0.00,WeatherDisplay:10.37,2013-05-05 15:56:00,
2013-05-05 09:01:00,60.3,49.3,29.70,SSW,198,8.1,8.1,67,0.00,CLR,,0.00,WeatherDisplay:10.37,2013-05-05 16:01:00,
2013-05-05 09:06:00,60.2,49.2,29.70,SW,232,6.9,6.9,67,0.00,CLR,,0.00,WeatherDisplay:10.37,2013-05-05 16:06:00,
2013-05-05 09:11:00,60.3,48.9,29.70,West,263,11.5,11.5,66,0.00,CLR,,0.00,WeatherDisplay:10.37,2013-05-05 16:11:00,
2013-05-05 09:16:00,60.4,49.4,29.71,WSW,248,10.4,10.4,67,0.00,CLR,,0.00,WeatherDisplay:10.37,2013-05-05 16:16:00,
2013-05-05 09:21:00,60.4,49.0,29.71,SE,139,8.1,8.1,66,0.00,CLR,,0.00,WeatherDisplay:10.37,2013-05-05 16:21:00,
2013-05-05 09:26:00,60.4,49.0,29.71,NW,307,11.5,11.5,66,0.00,CLR,,0.00,WeatherDisplay:10.37,2013-05-05 16:26:00,
2013-05-05 09:31:00,60.6,49.2,29.71,North,6,9.2,9.2,66,0.00,CLR,,0.00,WeatherDisplay:10.37,2013-05-05 16:31:00,
2013-05-05 09:36:00,60.7,49.3,29.71,SW,221,13.0,13.0,66,0.00,CLR,,0.00,WeatherDisplay:10.37,2013-05-05 16:36:00,
2013-05-05 09:41:00,60.7,49.3,29.71,South,173,9.2,9.2,66,0.00,CLR,,0.00,WeatherDisplay:10.37,2013-05-05 16:41:00,
2013-05-05 09:46:00,60.7,49.3,29.71,WSW,253,10.4,10.4,66,0.00,CLR,,0.00,WeatherDisplay:10.37,2013-05-05 16:46:00,
2013-05-05 09:51:00,60.8,49.4,29.71,SSW,200,8.1,8.1,66,0.00,CLR,,0.00,WeatherDisplay:10.37,2013-05-05 16:51:00,
2013-05-05 09:56:00,60.7,48.9,29.71,WSW,253,9.2,9.2,65,0.00,CLR,,0.00,WeatherDisplay:10.37,2013-05-05 16:56:00,
2013-05-05 10:01:00,60.6,49.2,29.71,SE,128,6.9,6.9,66,0.00,CLR,,0.00,WeatherDisplay:10.37,2013-05-05 17:01:00,
2013-05-05 10:06:00,60.7,49.3,29.72,WSW,238,9.2,9.2,66,0.00,CLR,,0.00,WeatherDisplay:10.37,2013-05-05 17:06:00,
2013-05-05 10:11:00,60.7,48.9,29.72,South,186,5.8,5.8,65,0.00,CLR,,0.00,WeatherDisplay:10.37,2013-05-05 17:11:00,
2013-05-05 10:16:00,60.8,49.0,29.72,WSW,251,9.2,9.2,65,0.00,CLR,,0.00,WeatherDisplay:10.37,2013-05-05 17:16:00,
2013-05-05 10:21:00,61.0,49.1,29.72,SW,225,8.1,8.1,65,0.00,CLR,,0.00,WeatherDisplay:10.37,2013-05-05 17:21:00,
2013-05-05 10:26:00,61.3,49.4,29.71,WSW,257,8.1,8.1,65,0.00,CLR,,0.00,WeatherDisplay:10.37,2013-05-05 17:26:00,
2013-05-05 10:31:00,61.5,49.2,29.72,WSW,250,9.2,9.2,64,0.00,CLR,,0.00,WeatherDisplay:10.37,2013-05-05 17:31:00,
2013-05-05 10:36:00,61.9,49.2,29.72,WSW,255,6.9,6.9,63,0.00,CLR,,0.00,WeatherDisplay:10.37,2013-05-05 17:36:00,
2013-05-05 10:41:00,61.8,49.1,29.72,South,187,9.2,9.2,63,0.00,CLR,,0.00,WeatherDisplay:10.37,2013-05-05 17:41:00,
2013-05-05 10:46:00,62.3,49.5,29.72,West,259,2.3,2.3,63,0.00,CLR,,0.00,WeatherDisplay:10.37,2013-05-05 17:46:00,
2013-05-05 10:51:00,63.0,49.3,29.72,SW,225,9.2,9.2,61,0.00,CLR,,0.00,WeatherDisplay:10.37,2013-05-05 17:51:00,
2013-05-05 10:56:00,63.5,49.4,29.73,SSE,154,6.0,6.0,60,0.00,CLR,,0.00,WeatherDisplay:10.37,2013-05-05 17:56:00,
2013-05-05 11:01:00,63.5,49.4,29.73,South,176,8.1,8.1,60,0.00,CLR,,0.00,WeatherDisplay:10.37,2013-05-05 18:01:00,
2013-05-05 11:06:00,63.3,49.6,29.73,SW,233,4.6,4.6,61,0.00,CLR,,0.00,WeatherDisplay:10.37,2013-05-05 18:06:00,
2013-05-05 11:11:00,63.3,49.6,29.73,SSW,210,4.6,4.6,61,0.00,CLR,,0.00,WeatherDisplay:10.37,2013-05-05 18:11:00,
2013-05-05 11:16:00,63.6,49.0,29.73,WNW,290,5.8,5.8,59,0.00,CLR,,0.00,WeatherDisplay:10.37,2013-05-05 18:16:00,
2013-05-05 11:21:00,63.6,49.0,29.73,SW,224,2.0,2.0,59,0.00,CLR,,0.00,WeatherDisplay:10.37,2013-05-05 18:21:00,
2013-05-05 11:26:00,63.8,49.6,29.73,SSE,150,3.0,3.0,60,0.00,CLR,,0.00,WeatherDisplay:10.37,2013-05-05 18:26:00,
2013-05-05 11:31:00,64.2,49.6,29.73,SSE,158,3.5,3.5,59,0.00,CLR,,0.00,WeatherDisplay:10.37,2013-05-05 18:31:00,
2013-05-05 11:36:00,64.7,49.6,29.73,South,177,4.0,4.6,58,0.00,CLR,,0.00,WeatherDisplay:10.37,2013-05-05 18:36:00,
2013-05-05 11:41:00,64.8,49.2,29.74,SW,222,4.6,4.6,57,0.00,CLR,,0.00,WeatherDisplay:10.37,2013-05-05 18:41:00,
2013-05-05 11:46:00,64.4,48.8,29.74,SSE,160,5.8,5.8,57,0.00,CLR,,0.00,WeatherDisplay:10.37,2013-05-05 18:46:00,
2013-05-05 11:51:00,64.3,49.2,29.73,SSW,213,3.5,3.5,58,0.00,CLR,,0.00,WeatherDisplay:10.37,2013-05-05 18:51:00,
2013-05-05 11:56:00,64.1,48.5,29.74,South,172,3.5,3.5,57,0.00,CLR,,0.00,WeatherDisplay:10.37,2013-05-05 18:56:00,
2013-05-05 12:01:00,63.4,48.8,29.74,SSE,165,6.9,6.9,59,0.00,CLR,,0.00,WeatherDisplay:10.37,2013-05-05 19:01:00,
2013-05-05 12:06:00,63.0,48.4,29.74,SW,232,5.8,5.8,59,0.00,CLR,,0.00,WeatherDisplay:10.37,2013-05-05 19:06:00,
2013-05-05 12:11:00,63.3,49.2,29.73,SW,219,3.5,3.5,60,0.00,CLR,,0.00,WeatherDisplay:10.37,2013-05-05 19:11:00,
2013-05-05 12:16:00,63.7,49.1,29.73,SW,215,4.6,4.6,59,0.00,CLR,,0.00,WeatherDisplay:10.37,2013-05-05 19:16:00,
2013-05-05 12:21:00,63.9,49.3,29.73,WSW,245,4.0,4.0,59,0.00,CLR,,0.00,WeatherDisplay:10.37,2013-05-05 19:21:00,
2013-05-05 12:26:00,64.5,49.8,29.73,SW,233,3.5,3.5,59,0.00,CLR,,0.00,WeatherDisplay:10.37,2013-05-05 19:26:00,
2013-05-05 12:31:00,65.0,49.9,29.73,SW,220,3.5,3.5,58,0.00,CLR,,0.00,WeatherDisplay:10.37,2013-05-05 19:31:00,
2013-05-05 12:36:00,65.4,49.8,29.72,SSW,203,4.6,4.6,57,0.00,CLR,,0.00,WeatherDisplay:10.37,2013-05-05 19:36:00,
2013-05-05 12:41:00,65.2,49.6,29.72,NE,40,3.5,3.5,57,0.00,CLR,,0.00,WeatherDisplay:10.37,2013-05-05 19:41:00,
2013-05-05 12:46:00,65.6,49.5,29.72,NW,319,2.3,2.3,56,0.00,CLR,,0.00,WeatherDisplay:10.37,2013-05-05 19:46:00,
2013-05-05 12:51:00,65.0,49.4,29.72,NW,308,3.5,3.5,57,0.00,CLR,,0.00,WeatherDisplay:10.37,2013-05-05 19:51:00,
2013-05-05 12:56:00,66.3,48.7,29.72,North,5,5.8,5.8,53,0.00,CLR,,0.00,WeatherDisplay:10.37,2013-05-05 19:56:00,
2013-05-05 13:01:00,65.5,48.4,29.71,ENE,58,5.8,5.8,54,0.00,CLR,,0.00,WeatherDisplay:10.37,2013-05-05 20:01:00,
2013-05-05 13:06:00,65.4,48.8,29.71,West,276,3.5,3.5,55,0.00,CLR,,0.00,WeatherDisplay:10.37,2013-05-05 20:06:00,
2013-05-05 13:12:00,67.1,49.4,29.71,West,268,2.3,2.3,53,0.00,CLR,,0.00,WeatherDisplay:10.37,2013-05-05 20:12:00,
2013-05-05 13:17:00,67.0,50.3,29.71,NW,311,5.8,5.8,55,0.00,CLR,,0.00,WeatherDisplay:10.37,2013-05-05 20:17:00,
2013-05-05 13:22:00,66.7,49.5,29.71,NNW,333,4.6,4.6,54,0.00,CLR,,0.00,WeatherDisplay:10.37,2013-05-05 20:22:00,
2013-05-05 13:27:00,66.0,48.9,29.71,NNE,13,6.0,6.0,54,0.00,CLR,,0.00,WeatherDisplay:10.37,2013-05-05 20:27:00,
2013-05-05 13:32:00,65.9,49.8,29.71,NNW,345,7.0,7.0,56,0.00,CLR,,0.00,WeatherDisplay:10.37,2013-05-05 20:32:00,
2013-05-05 13:37:00,65.6,49.0,29.71,NNE,29,9.2,9.2,55,0.00,CLR,,0.00,WeatherDisplay:10.37,2013-05-05 20:37:00,
2013-05-05 13:42:00,65.0,48.4,29.71,NNW,342,5.8,5.8,55,0.00,CLR,,0.00,WeatherDisplay:10.37,2013-05-05 20:42:00,
2013-05-05 13:47:00,64.7,48.6,29.71,NE,36,6.0,6.0,56,0.00,CLR,,0.00,WeatherDisplay:10.37,2013-05-05 20:47:00,
2013-05-05 13:52:00,65.0,48.4,29.71,ENE,68,8.1,8.1,55,0.00,CLR,,0.00,WeatherDisplay:10.37,2013-05-05 20:52:00,
2013-05-05 13:57:00,65.5,48.9,29.71,ESE,110,4.0,4.0,55,0.00,CLR,,0.00,WeatherDisplay:10.37,2013-05-05 20:57:00,
2013-05-05 14:02:00,66.4,49.2,29.71,SE,131,3.5,3.5,54,0.00,CLR,,0.00,WeatherDisplay:10.37,2013-05-05 21:02:00,
2013-05-05 14:07:00,66.7,49.0,29.72,East,85,3.5,3.5,53,0.00,CLR,,0.00,WeatherDisplay:10.37,2013-05-05 21:07:00,
2013-05-05 14:12:00,66.3,48.7,29.72,WSW,238,0.0,0.0,53,0.00,CLR,,0.00,WeatherDisplay:10.37,2013-05-05 21:12:00,
2013-05-05 14:17:00,66.8,48.1,29.72,NW,326,3.5,3.5,51,0.00,CLR,,0.00,WeatherDisplay:10.37,2013-05-05 21:17:00,
2013-05-05 14:22:00,66.7,49.0,29.72,WNW,292,3.5,3.5,53,0.00,CLR,,0.00,WeatherDisplay:10.37,2013-05-05 21:22:00,
2013-05-05 14:27:00,66.5,48.8,29.72,WSW,244,1.1,1.1,53,0.00,CLR,,0.00,WeatherDisplay:10.37,2013-05-05 21:27:00,
2013-05-05 14:32:00,67.0,48.8,29.72,WNW,303,4.6,4.6,52,0.00,CLR,,0.00,WeatherDisplay:10.37,2013-05-05 21:32:00,
2013-05-05 14:37:00,66.5,48.3,29.72,WSW,255,4.6,4.6,52,0.00,CLR,,0.00,WeatherDisplay:10.37,2013-05-05 21:37:00,
2013-05-05 14:42:00,66.4,48.2,29.72,NW,316,2.3,2.3,52,0.00,CLR,,0.00,WeatherDisplay:10.37,2013-05-05 21:42:00,
2013-05-05 14:47:00,66.5,48.3,29.72,NW,308,1.1,1.1,52,0.00,CLR,,0.00,WeatherDisplay:10.37,2013-05-05 21:47:00,
2013-05-05 14:52:00,66.6,48.4,29.72,North,4,4.6,4.6,52,0.00,CLR,,0.00,WeatherDisplay:10.37,2013-05-05 21:52:00,
2013-05-05 14:57:00,66.6,48.9,29.72,West,262,3.5,3.5,53,0.00,CLR,,0.00,WeatherDisplay:10.37,2013-05-05 21:57:00,
2013-05-05 15:02:00,68.2,49.4,29.72,West,275,2.3,2.3,51,0.00,CLR,,0.00,WeatherDisplay:10.37,2013-05-05 22:02:00,
2013-05-05 15:07:00,68.8,49.4,29.72,NW,307,6.9,6.9,50,0.00,CLR,,0.00,WeatherDisplay:10.37,2013-05-05 22:07:00,
2013-05-05 15:12:00,69.2,49.2,29.71,SW,228,1.1,1.1,49,0.00,CLR,,0.00,WeatherDisplay:10.37,2013-05-05 22:12:00,
2013-05-05 15:17:00,69.8,48.7,29.71,WSW,253,4.6,4.6,47,0.00,CLR,,0.00,WeatherDisplay:10.37,2013-05-05 22:17:00,
2013-05-05 15:22:00,70.5,49.3,29.71,SW,224,3.5,3.5,47,0.00,CLR,,0.00,WeatherDisplay:10.37,2013-05-05 22:22:00,
2013-05-05 15:27:00,70.5,48.7,29.71,SSE,155,3.5,3.5,46,0.00,CLR,,0.00,WeatherDisplay:10.37,2013-05-05 22:27:00,
2013-05-05 15:32:00,70.4,49.2,29.71,NW,309,1.1,1.1,47,0.00,CLR,,0.00,WeatherDisplay:10.37,2013-05-05 22:32:00,
2013-05-05 15:37:00,69.4,48.9,29.71,NNW,327,3.5,3.5,48,0.00,CLR,,0.00,WeatherDisplay:10.37,2013-05-05 22:37:00,
2013-05-05 15:42:00,69.0,49.6,29.71,WNW,284,3.5,3.5,50,0.00,CLR,,0.00,WeatherDisplay:10.37,2013-05-05 22:42:00,
2013-05-05 15:47:00,68.9,48.9,29.71,West,267,3.5,3.5,49,0.00,CLR,,0.00,WeatherDisplay:10.37,2013-05-05 22:47:00,
2013-05-05 15:52:00,68.3,48.9,29.71,NNW,333,3.5,3.5,50,0.00,CLR,,0.00,WeatherDisplay:10.37,2013-05-05 22:52:00,
2013-05-05 15:57:00,68.3,49.5,29.71,West,259,2.3,2.3,51,0.00,CLR,,0.00,WeatherDisplay:10.37,2013-05-05 22:57:00,
2013-05-05 16:02:00,69.1,49.7,29.71,NW,315,3.5,3.5,50,0.00,CLR,,0.00,WeatherDisplay:10.37,2013-05-05 23:02:00,
2013-05-05 16:07:00,68.4,49.0,29.71,NNW,330,5.8,5.8,50,0.00,CLR,,0.00,WeatherDisplay:10.37,2013-05-05 23:07:00,
2013-05-05 16:12:00,68.1,49.3,29.71,West,269,4.6,4.6,51,0.00,CLR,,0.00,WeatherDisplay:10.37,2013-05-05 23:12:00,
2013-05-05 16:17:00,69.2,49.8,29.71,SSW,203,2.3,2.3,50,0.00,CLR,,0.00,WeatherDisplay:10.37,2013-05-05 23:17:00,
2013-05-05 16:22:00,69.7,50.8,29.71,West,275,2.3,2.3,51,0.00,CLR,,0.00,WeatherDisplay:10.37,2013-05-05 23:22:00,
2013-05-05 16:27:00,68.7,49.8,29.71,NW,311,6.0,6.0,51,0.00,CLR,,0.00,WeatherDisplay:10.37,2013-05-05 23:27:00,
2013-05-05 16:32:00,67.9,50.6,29.71,NW,318,6.9,6.9,54,0.00,CLR,,0.00,WeatherDisplay:10.37,2013-05-05 23:32:00,
2013-05-05 16:37:00,68.1,51.3,29.71,NW,316,5.0,5.0,55,0.00,CLR,,0.00,WeatherDisplay:10.37,2013-05-05 23:37:00,
2013-05-05 16:42:00,68.0,51.2,29.71,WNW,295,3.5,3.5,55,0.00,CLR,,0.00,WeatherDisplay:10.37,2013-05-05 23:42:00,
2013-05-05 16:47:00,68.6,51.8,29.71,NNW,331,5.8,5.8,55,0.00,CLR,,0.00,WeatherDisplay:10.37,2013-05-05 23:47:00,
2013-05-05 16:52:00,68.8,51.0,29.71,NNE,16,5.8,5.8,53,0.00,CLR,,0.00,WeatherDisplay:10.37,2013-05-05 23:52:00,
2013-05-05 16:57:00,67.6,50.4,29.71,NNW,333,10.0,10.0,54,0.00,CLR,,0.00,WeatherDisplay:10.37,2013-05-05 23:57:00,
2013-05-05 17:02:00,67.1,50.9,29.71,North,355,12.7,12.7,56,0.00,CLR,,0.00,WeatherDisplay:10.37,2013-05-06 00:02:00,
2013-05-05 17:07:00,66.7,50.5,29.72,NW,314,9.2,9.2,56,0.00,CLR,,0.00,WeatherDisplay:10.37,2013-05-06 00:07:00,
2013-05-05 17:12:00,66.6,49.9,29.71,North,354,8.1,8.1,55,0.00,CLR,,0.00,WeatherDisplay:10.37,2013-05-06 00:12:00,
2013-05-05 17:17:00,66.7,51.0,29.71,NNW,329,5.8,5.8,57,0.00,CLR,,0.00,WeatherDisplay:10.37,2013-05-06 00:17:00,
2013-05-05 17:22:00,66.7,51.5,29.72,NW,311,3.5,3.5,58,0.00,CLR,,0.00,WeatherDisplay:10.37,2013-05-06 00:22:00,
2013-05-05 17:27:00,66.9,51.6,29.72,NW,312,3.5,3.5,58,0.00,CLR,,0.00,WeatherDisplay:10.37,2013-05-06 00:27:00,
2013-05-05 17:32:00,67.1,51.4,29.72,NW,319,8.1,8.1,57,0.00,CLR,,0.00,WeatherDisplay:10.37,2013-05-06 00:32:00,
2013-05-05 17:37:00,66.6,51.4,29.72,NW,316,8.1,8.1,58,0.00,CLR,,0.00,WeatherDisplay:10.37,2013-05-06 00:37:00,
2013-05-05 17:42:00,66.5,51.3,29.72,NW,311,6.9,6.9,58,0.00,CLR,,0.00,WeatherDisplay:10.37,2013-05-06 00:42:00,
2013-05-05 17:47:00,66.3,51.5,29.72,West,269,3.5,3.5,59,0.00,CLR,,0.00,WeatherDisplay:10.37,2013-05-06 00:47:00,
2013-05-05 17:52:00,66.3,51.5,29.72,WNW,298,3.5,3.5,59,0.00,CLR,,0.00,WeatherDisplay:10.37,2013-05-06 00:52:00,
2013-05-05 17:57:00,66.4,51.2,29.72,SSW,205,5.8,5.8,58,0.00,CLR,,0.00,WeatherDisplay:10.37,2013-05-06 00:57:00,
2013-05-05 18:02:00,66.4,51.6,29.72,WNW,284,1.1,1.1,59,0.00,CLR,,0.00,WeatherDisplay:10.37,2013-05-06 01:02:00,
2013-05-05 18:07:00,66.4,51.6,29.72,WSW,248,4.6,4.6,59,0.00,CLR,,0.00,WeatherDisplay:10.37,2013-05-06 01:07:00,
2013-05-05 18:12:00,66.2,51.4,29.73,NNW,333,5.8,5.8,59,0.00,CLR,,0.00,WeatherDisplay:10.37,2013-05-06 01:12:00,
2013-05-05 18:17:00,66.0,51.3,29.73,West,259,2.3,2.3,59,0.00,CLR,,0.00,WeatherDisplay:10.37,2013-05-06 01:17:00,
2013-05-05 18:22:00,65.8,51.1,29.73,WSW,248,2.3,2.3,59,0.00,CLR,,0.00,WeatherDisplay:10.37,2013-05-06 01:22:00,
2013-05-05 18:27:00,65.4,51.1,29.73,West,267,2.3,2.3,60,0.00,CLR,,0.00,WeatherDisplay:10.37,2013-05-06 01:27:00,
2013-05-05 18:32:00,65.3,51.1,29.73,West,263,2.3,2.3,60,0.00,CLR,,0.00,WeatherDisplay:10.37,2013-05-06 01:32:00,
2013-05-05 18:37:00,65.3,51.1,29.73,WNW,295,2.3,2.3,60,0.00,CLR,,0.00,WeatherDisplay:10.37,2013-05-06 01:37:00,
2013-05-05 18:42:00,65.1,51.3,29.73,NW,308,3.5,3.5,61,0.00,CLR,,0.00,WeatherDisplay:10.37,2013-05-06 01:42:00,
2013-05-05 18:47:00,66.1,52.3,29.74,NW,304,3.5,3.5,61,0.00,CLR,,0.00,WeatherDisplay:10.37,2013-05-06 01:47:00,
2013-05-05 18:52:00,67.2,51.4,29.74,WNW,296,3.5,3.5,57,0.00,CLR,,0.00,WeatherDisplay:10.37,2013-05-06 01:52:00,
2013-05-05 18:57:00,67.3,52.0,29.74,NW,308,5.0,5.0,58,0.00,CLR,,0.00,WeatherDisplay:10.37,2013-05-06 01:57:00,
2013-05-05 19:02:00,66.6,50.9,29.74,WNW,290,2.3,2.3,57,0.00,CLR,,0.00,WeatherDisplay:10.37,2013-05-06 02:02:00,
2013-05-05 19:07:00,66.0,51.7,29.74,NNW,329,3.5,3.5,60,0.00,CLR,,0.00,WeatherDisplay:10.37,2013-05-06 02:07:00,
2013-05-05 19:12:00,66.6,52.3,29.74,NW,315,2.3,2.3,60,0.00,CLR,,0.00,WeatherDisplay:10.37,2013-05-06 02:12:00,
2013-05-05 19:17:00,67.9,52.6,29.74,North,358,3.5,3.5,58,0.00,CLR,,0.00,WeatherDisplay:10.37,2013-05-06 02:17:00,
2013-05-05 19:22:00,67.9,51.6,29.74,NW,304,2.3,2.3,56,0.00,CLR,,0.00,WeatherDisplay:10.37,2013-05-06 02:22:00,
2013-05-05 19:27:00,68.9,52.1,29.74,NW,310,2.3,2.3,55,0.00,CLR,,0.00,WeatherDisplay:10.37,2013-05-06 02:27:00,
2013-05-05 19:32:00,67.9,52.1,29.74,NW,315,2.3,2.3,57,0.00,CLR,,0.00,WeatherDisplay:10.37,2013-05-06 02:32:00,
2013-05-05 19:37:00,67.4,51.6,29.74,NNW,342,2.3,2.3,57,0.00,CLR,,0.00,WeatherDisplay:10.37,2013-05-06 02:37:00,
2013-05-05 19:42:00,66.5,51.3,29.75,NNW,332,2.3,2.3,58,0.00,CLR,,0.00,WeatherDisplay:10.37,2013-05-06 02:42:00,
2013-05-05 19:47:00,65.7,51.0,29.75,NNW,338,3.5,3.5,59,0.00,CLR,,0.00,WeatherDisplay:10.37,2013-05-06 02:47:00,
2013-05-05 19:52:00,65.6,51.3,29.75,NW,310,3.5,3.5,60,0.00,CLR,,0.00,WeatherDisplay:10.37,2013-05-06 02:52:00,
2013-05-05 19:57:00,66.1,50.9,29.75,NNW,345,4.6,4.6,58,0.00,CLR,,0.00,WeatherDisplay:10.37,2013-05-06 02:57:00,
2013-05-05 20:02:00,64.7,50.9,29.75,NNE,28,3.5,3.5,61,0.00,CLR,,0.00,WeatherDisplay:10.37,2013-05-06 03:02:00,
2013-05-05 20:07:00,63.9,50.6,29.75,North,353,3.5,3.5,62,0.00,CLR,,0.00,WeatherDisplay:10.37,2013-05-06 03:07:00,
2013-05-05 20:12:00,63.3,50.9,29.75,North,11,3.5,3.5,64,0.00,CLR,,0.00,WeatherDisplay:10.37,2013-05-06 03:12:00,
2013-05-05 20:17:00,63.1,50.7,29.75,NW,319,3.5,3.5,64,0.00,CLR,,0.00,WeatherDisplay:10.37,2013-05-06 03:17:00,
2013-05-05 20:22:00,62.8,50.4,29.75,NNW,344,4.6,4.6,64,0.00,CLR,,0.00,WeatherDisplay:10.37,2013-05-06 03:22:00,
2013-05-05 20:27:00,62.6,50.7,29.75,North,11,4.0,4.0,65,0.00,CLR,,0.00,WeatherDisplay:10.37,2013-05-06 03:27:00,
2013-05-05 20:32:00,62.3,50.4,29.76,North,1,5.0,5.0,65,0.00,CLR,,0.00,WeatherDisplay:10.37,2013-05-06 03:32:00,
2013-05-05 20:37:00,62.1,50.6,29.76,North,349,4.0,4.0,66,0.00,CLR,,0.00,WeatherDisplay:10.37,2013-05-06 03:37:00,
2013-05-05 20:42:00,62.0,50.5,29.76,NNE,17,6.9,6.9,66,0.00,CLR,,0.00,WeatherDisplay:10.37,2013-05-06 03:42:00,
2013-05-05 20:47:00,62.1,51.0,29.76,North,354,8.1,8.1,67,0.00,CLR,,0.00,WeatherDisplay:10.37,2013-05-06 03:47:00,
2013-05-05 20:52:00,62.4,50.5,29.76,North,354,3.5,3.5,65,0.00,CLR,,0.00,WeatherDisplay:10.37,2013-05-06 03:52:00,
2013-05-05 20:57:00,62.3,50.8,29.76,North,349,4.6,4.6,66,0.00,CLR,,0.00,WeatherDisplay:10.37,2013-05-06 03:57:00,
2013-05-05 21:01:00,62.0,50.5,29.77,NNW,338,3.5,3.5,66,0.00,CLR,,0.00,WeatherDisplay:10.37,2013-05-06 04:01:00,
2013-05-05 21:02:00,61.9,50.4,29.77,North,358,3.5,3.5,66,0.00,CLR,,0.00,WeatherDisplay:10.37,2013-05-06 04:02:00,
2013-05-05 21:03:00,61.8,50.3,29.77,NNE,18,3.5,3.5,66,0.00,CLR,,0.00,WeatherDisplay:10.37,2013-05-06 04:03:00,
2013-05-05 21:08:00,61.3,50.2,29.76,NNW,338,4.6,4.6,67,0.00,CLR,,0.00,WeatherDisplay:10.37,2013-05-06 04:08:00,
2013-05-05 21:13:00,61.2,50.6,29.77,North,354,3.5,3.5,68,0.00,CLR,,0.00,WeatherDisplay:10.37,2013-05-06 04:13:00,
2013-05-05 21:18:00,60.8,50.2,29.77,North,5,3.5,3.5,68,0.00,CLR,,0.00,WeatherDisplay:10.37,2013-05-06 04:18:00,
2013-05-05 21:23:00,60.8,50.6,29.77,NNW,333,4.6,4.6,69,0.00,CLR,,0.00,WeatherDisplay:10.37,2013-05-06 04:23:00,
2013-05-05 21:28:00,61.1,50.8,29.78,NW,311,2.3,2.3,69,0.00,CLR,,0.00,WeatherDisplay:10.37,2013-05-06 04:28:00,
2013-05-05 21:33:00,61.6,50.9,29.78,NNW,332,3.5,3.5,68,0.00,CLR,,0.00,WeatherDisplay:10.37,2013-05-06 04:33:00,
2013-05-05 21:38:00,61.7,50.6,29.78,NW,326,3.5,3.5,67,0.00,CLR,,0.00,WeatherDisplay:10.37,2013-05-06 04:38:00,
2013-05-05 21:43:00,61.9,51.2,29.78,North,359,3.5,3.5,68,0.00,CLR,,0.00,WeatherDisplay:10.37,2013-05-06 04:43:00,
2013-05-05 21:48:00,62.0,50.9,29.78,NW,316,4.0,4.0,67,0.00,CLR,,0.00,WeatherDisplay:10.37,2013-05-06 04:48:00,
2013-05-05 21:53:00,62.0,50.9,29.78,NNW,347,3.5,3.5,67,0.00,CLR,,0.00,WeatherDisplay:10.37,2013-05-06 04:53:00,
2013-05-05 21:58:00,61.5,50.4,29.78,NNW,346,6.9,6.9,67,0.00,CLR,,0.00,WeatherDisplay:10.37,2013-05-06 04:58:00,
2013-05-05 22:03:00,61.0,50.4,29.79,NNW,339,4.0,4.0,68,0.00,CLR,,0.00,WeatherDisplay:10.37,2013-05-06 05:03:00,
2013-05-05 22:08:00,60.6,50.4,29.79,NNE,16,7.0,7.0,69,0.00,CLR,,0.00,WeatherDisplay:10.37,2013-05-06 05:08:00,
2013-05-05 22:13:00,60.5,50.7,29.79,NNW,335,5.8,5.8,70,0.00,CLR,,0.00,WeatherDisplay:10.37,2013-05-06 05:13:00,
2013-05-05 22:18:00,60.4,50.6,29.79,NNW,338,4.0,4.0,70,0.00,CLR,,0.00,WeatherDisplay:10.37,2013-05-06 05:18:00,
2013-05-05 22:23:00,60.4,50.6,29.79,NNW,336,3.5,3.5,70,0.00,CLR,,0.00,WeatherDisplay:10.37,2013-05-06 05:23:00,
2013-05-05 22:28:00,60.4,50.6,29.79,NNW,338,5.8,5.8,70,0.00,CLR,,0.00,WeatherDisplay:10.37,2013-05-06 05:28:00,
2013-05-05 22:33:00,60.2,50.4,29.79,North,9,3.5,3.5,70,0.00,CLR,,0.00,WeatherDisplay:10.37,2013-05-06 05:33:00,
2013-05-05 22:38:00,60.0,50.2,29.80,NW,305,3.5,3.5,70,0.00,CLR,,0.00,WeatherDisplay:10.37,2013-05-06 05:38:00,
2013-05-05 22:43:00,59.7,50.3,29.80,NNE,26,4.6,4.6,71,0.00,CLR,,0.00,WeatherDisplay:10.37,2013-05-06 05:43:00,
2013-05-05 22:48:00,59.6,50.2,29.80,NE,34,4.0,4.0,71,0.00,CLR,,0.00,WeatherDisplay:10.37,2013-05-06 05:48:00,
2013-05-05 22:53:00,59.4,50.4,29.80,NNE,15,6.0,6.0,72,0.00,CLR,,0.00,WeatherDisplay:10.37,2013-05-06 05:53:00,
2013-05-05 22:58:00,59.4,50.4,29.80,NNW,333,6.0,6.0,72,0.00,CLR,,0.00,WeatherDisplay:10.37,2013-05-06 05:58:00,
2013-05-05 23:03:00,59.4,50.4,29.80,NNW,346,4.6,4.6,72,0.00,CLR,,0.00,WeatherDisplay:10.37,2013-05-06 06:03:00,
2013-05-05 23:08:00,59.5,50.5,29.81,NNE,25,5.8,5.8,72,0.00,CLR,,0.00,WeatherDisplay:10.37,2013-05-06 06:08:00,
2013-05-05 23:13:00,59.5,50.5,29.81,NNW,342,6.0,6.0,72,0.00,CLR,,0.00,WeatherDisplay:10.37,2013-05-06 06:13:00,
2013-05-05 23:18:00,59.5,50.5,29.81,NNE,12,3.5,3.5,72,0.00,CLR,,0.00,WeatherDisplay:10.37,2013-05-06 06:18:00,
2013-05-05 23:23:00,59.5,50.5,29.81,NNW,345,3.5,3.5,72,0.00,CLR,,0.00,WeatherDisplay:10.37,2013-05-06 06:23:00,
2013-05-05 23:28:00,59.5,50.5,29.81,NW,311,3.5,3.5,72,0.00,CLR,,0.00,WeatherDisplay:10.37,2013-05-06 06:28:00,
2013-05-05 23:33:00,59.4,50.4,29.81,NE,34,4.6,4.6,72,0.00,CLR,,0.00,WeatherDisplay:10.37,2013-05-06 06:33:00,
2013-05-05 23:38:00,59.4,50.4,29.81,North,355,3.5,3.5,72,0.00,CLR,,0.00,WeatherDisplay:10.37,2013-05-06 06:38:00,
2013-05-05 23:43:00,59.4,50.4,29.81,North,349,3.5,3.5,72,0.00,CLR,,0.00,WeatherDisplay:10.37,2013-05-06 06:43:00,
2013-05-05 23:48:00,59.3,50.6,29.81,NNW,330,3.5,3.5,73,0.00,CLR,,0.00,WeatherDisplay:10.37,2013-05-06 06:48:00,
2013-05-05 23:53:00,59.3,50.6,29.81,NNE,13,3.0,3.0,73,0.00,CLR,,0.00,WeatherDisplay:10.37,2013-05-06 06:53:00,
2013-05-05 23:58:00,59.3,50.6,29.82,North,354,4.0,4.0,73,0.00,CLR,,0.00,WeatherDisplay:10.37,2013-05-06 06:58:00,